Regional Weather Roundup
Issued by NWS

Home | Current Version | Previous Version | Text Only | Print | Product List | Glossary Off
Versions: 1 2 3 4 5 6 7 8 9 10 11 12 13 14 15 16 17 18 19 20 21 22 23 24 25 26 27 28 29 30 31 32 33 34 35 36 37 38 39 40 41 42 43 44 45 46 47 48 49 50

000
ASUS43 KFSD 251302
RWRSD

WEATHER ROUNDUP FOR SOUTH DAKOTA
NATIONAL WEATHER SERVICE SIOUX FALLS SD
800 AM CDT FRI MAY 25 2018

NOTE: "FAIR" INDICATES FEW OR NO CLOUDS BELOW 12,000 FEET WITH NO
SIGNIFICANT WEATHER AND/OR OBSTRUCTIONS TO VISIBILITY.


SDZ001>005-009-010-012>017-251400-
NORTHWEST AND NORTH CENTRAL SOUTH DAKOTA

CITY           SKY/WX    TMP DP  RH WIND       PRES   REMARKS
BUFFALO          N/A     63  53  70 W9        29.85R
FAITH            N/A     66  59  78 W9        29.87R
MOBRIDGE       SUNNY     68  59  73 CALM      29.79S
$$

SDZ012>016-024>037-041>051-057-063-072>074-251400-
SOUTHWEST AND SOUTH CENTRAL SOUTH DAKOTA

CITY           SKY/WX    TMP DP  RH WIND       PRES   REMARKS
RAPID CTY ARPT SUNNY     64  54  69 NW9       29.93R
PIERRE         MOSUNNY   70  60  70 W6        29.83S
CUSTER         SUNNY     60  46  59 NW3       30.07R
ELLSWORTH AFB  SUNNY     64  58  80 NW7       29.93R
PHILIP         MOSUNNY   63  59  87 CALM      29.87S
PINE RIDGE     SUNNY     59  54  83 W5        29.96R
SPEARFISH      FAIR      61  52  72 CALM      29.99S
WINNER         FAIR      68  60  75 NW5       29.87R
$$

SDZ004>011-016>023-039-040-251400-
NORTHEAST SOUTH DAKOTA

CITY           SKY/WX    TMP DP  RH WIND       PRES   REMARKS
ABERDEEN       SUNNY     68  58  70 S6        29.79S
WATERTOWN      SUNNY     66  63  90 S3        29.81S
BROOKINGS      SUNNY     68  61  78 S3        29.83S
SISSETON         N/A     74  60  61 SW7       29.76S
$$

SDZ017-020-022-023-036>040-048>070-251400-
SOUTHEAST SOUTH DAKOTA

CITY           SKY/WX    TMP DP  RH WIND       PRES   REMARKS
SIOUX FALLS    MOSUNNY   68  63  84 W3        29.83R
HURON          MOSUNNY   69  63  81 SW3       29.81S
CHAMBERLAIN    SUNNY     68  65  92 W5        29.85S
MITCHELL       SUNNY     70  61  73 W3        29.82F
YANKTON        SUNNY     70  62  76 CALM      29.84R
$$

ABBREVIATIONS USED IN REMARKS
   TC - TEMPERATURE IN CELSIUS
  WCI - WIND CHILL INDEX
   HX - HEAT INDEX
  VSB - VISIBILITY





USA.gov is the U.S. government's official web portal to all federal, state and local government web resources and services.